COSMOS 1333

Satellite information

Favourite Embed

Satellite Type and Status

PAYLOADIN ORBIT

Key statistics

Satellite COSMOS 1333 at a glance.

Uptime

15990

Days in orbit

Revolutions

≈ 13.7

Per day

Orbit

LEO

Low Earth Orbit

Inclination

82.9

Latest

Satellite identification and parameters

Extended collection of information and parameters for COSMOS 1333.

Object identification

Identified? True

Debris? False

Object name: COSMOS 1333

International designator: 1982-003A

Object number (NORAD): 13033

Object ID (CCSDS): 13033

Country: COMMONWEALTH OF INDEPENDENT STATES (CIS)

Current information (Y/N): Y

RCS size: LARGE

Orbital parameters

Period: 104.846 minutes

Inclination: 82.9431 deg

SMA: 7365.354 km

Apoapsis: 1011.883 km

Periapsis: 962.556 km

RAAN: 339.1388 deg

Eccentricy: 0.00334859

Argument of periapsis: 123.2087 deg

Mean anomaly: 50.2972 deg

Mean motion: 13.73448231 rev/day

Mean motion (dot): 0.00000105 rev/day2

B* drag term: 0.00009622898 1/REarth

Two-line elements (TLE)

Creation date: Oct. 25, 2025, 3:11 a.m.

Reference frame: TEME

Reference center: EARTH

Epoch: Oct. 24, 2025, 8:23 p.m. UTC

TLE line 0: 0 COSMOS 1333

TLE line 1: 1 13033U 82003A 25297.84968723 .00000105 00000-0 96229-4 0 9993

TLE line 2: 2 13033 82.9431 339.1388 0033486 123.2087 50.2972 13.73448231193881

Live tracking on map

Real-time ground track for satellite COSMOS 1333.

In-orbit conjunctions

A list of the most updated potential collisions computed for object COSMOS 1333.

Target Orbit TCA Probability of collision Miss distance Type
CALSPHERE 1 SSO 2025-03-23 15:08:24 0.0001354822 890.0 (m) PAYLOAD

Associated space launch

Navigation satellite providing location information for the Tsiklon-B navigation system

COSMOS 1333 was lifted into orbit during the mission ‘Kosmos-3M | Parus 30’, on board a Kosmos-3M space rocket.

The launch took place on Jan. 14, 1982, 7:51 a.m. from 132/2.

For more information about the launch, click the button.

Launch to space Kosmos-3M | Parus 30
Kosmos-3M | Parus 30

Agency: N/A

Status: Launch Successful

Launch date: Jan. 14, 1982, 7:51 a.m. UTC

Rocket: Kosmos-3M

Launch pad: 132/2

Location: Plesetsk Cosmodrome, Russian Federation

...

Latest news about this satellite

There are no fresh news available about this satellite. Check back as we update our databases every day.


Newsletter sign-up

Weekly statistics, charts and insights to help you stay on top of the space industry.